Location: ?????
(33.6267°N, 35.4675°E)
Time: 09:17:39
(UTC+00:00)

ATLAS 5 CENTAUR R/B - Pass Details

Date: 12 November 2019
Orbit: 563 x 1096 km, 63.3° (Epoch: 09 December)

Event Time Altitude Azimuth Distance (km) Brightness Sun altitude
Rises 16:51:28 0° 328° (NNW) 3,450 5.7 -28.0°
Reaches altitude 10° 16:53:49 10° 328° (NNW) 2,585 5.0 -28.5°
Maximum altitude 16:59:58 86° 242° (WSW) 998 2.4 -29.8°
Enters shadow 17:00:30 77° 169° (S) 1,025 2.4 -29.9°
